When you browse on this site, cookies collect data to enhance your experience and personalize the content and advertising you see.
Visit our Privacy Policy to learn more. By continuing to use the site, you agree to this use of cookies and data.
  • In Spain
  • List of Countries
  • For 7 days
  • Water Temperature
  • Satellite Maps
  • Weather Map
  • Weather Widgets
  • user-avatar
    Login

    Hourly Weather Adelaide

    Today, 19 February, Tuesday

    Time Temperature Precipitation Wind Pressure Humidity
    00:00 +17°C° 0 mm 3 mps 757 mmHg 74%
    01:00 +16°C° 0 mm 3 mps 757 mmHg 74%
    02:00 +16°C° 0 mm 3 mps 757 mmHg 75%
    03:00 +16°C° 0 mm 2 mps 757 mmHg 74%
    04:00 +16°C° 0 mm 2 mps 757 mmHg 73%
    05:00 +17°C° 0 mm 2 mps 757 mmHg 71%
    06:00 +17°C° 0 mm 2 mps 757 mmHg 70%
    07:00 +18°C° 0 mm 3 mps 758 mmHg 65%
    08:00 +19°C° 0 mm 3 mps 758 mmHg 61%
    09:00 +19°C° 0 mm 3 mps 758 mmHg 56%
    10:00 +20°C° 0 mm 3 mps 758 mmHg 54%
    11:00 +21°C° 0 mm 3 mps 758 mmHg 52%
    12:00 +21°C° 0 mm 3 mps 758 mmHg 50%
    13:00 +22°C° 0 mm 3 mps 758 mmHg 50%
    14:00 +22°C° 0 mm 4 mps 757 mmHg 49%
    15:00 +22°C° 0 mm 4 mps 757 mmHg 47%
    16:00 +22°C° 0 mm 4 mps 758 mmHg 50%
    17:00 +21°C° 0 mm 4 mps 758 mmHg 53%
    18:00 +20°C° 0 mm 4 mps 758 mmHg 56%
    19:00 +19°C° 0 mm 3 mps 758 mmHg 60%
    20:00 +18°C° 0 mm 3 mps 759 mmHg 64%
    21:00 +17°C° 0 mm 2 mps 759 mmHg 67%
    22:00 +17°C° 0 mm 2 mps 759 mmHg 68%
    23:00 +17°C° 0 mm 2 mps 759 mmHg 70%

    Tomorrow, 20 February, Wednesday

    Time Temperature Precipitation Wind Pressure Humidity
    00:00 +17°C° 0 mm 2 mps 759 mmHg 71%
    01:00 +16°C° 0 mm 2 mps 759 mmHg 72%
    02:00 +16°C° 0 mm 2 mps 759 mmHg 73%
    03:00 +16°C° 0 mm 2 mps 759 mmHg 74%
    04:00 +16°C° 0 mm 2 mps 759 mmHg 75%
    05:00 +16°C° 0 mm 2 mps 759 mmHg 75%
    06:00 +16°C° 0 mm 2 mps 759 mmHg 76%
    07:00 +18°C° 0 mm 2 mps 759 mmHg 69%
    08:00 +19°C° 0 mm 2 mps 760 mmHg 63%
    09:00 +21°C° 0 mm 2 mps 760 mmHg 56%
    10:00 +22°C° 0 mm 3 mps 760 mmHg 54%
    11:00 +22°C° 0 mm 3 mps 760 mmHg 52%
    12:00 +24°C° 0 mm 3 mps 759 mmHg 50%
    13:00 +23°C° 0 mm 4 mps 759 mmHg 51%
    14:00 +23°C° 0 mm 4 mps 759 mmHg 51%
    15:00 +23°C° 0 mm 4 mps 759 mmHg 52%
    16:00 +22°C° 0 mm 4 mps 759 mmHg 55%
    17:00 +22°C° 0 mm 4 mps 759 mmHg 58%
    18:00 +21°C° 0 mm 4 mps 759 mmHg 61%
    19:00 +20°C° 0 mm 4 mps 760 mmHg 65%
    20:00 +19°C° 0 mm 4 mps 760 mmHg 68%
    21:00 +18°C° 0 mm 3 mps 761 mmHg 72%
    22:00 +18°C° 0 mm 3 mps 761 mmHg 74%
    23:00 +17°C° 0 mm 3 mps 761 mmHg 76%

    Day after tomorrow, 21 February, Thursday

    Time Temperature Precipitation Wind Pressure Humidity
    00:00 +17°C° 0 mm 3 mps 761 mmHg 78%
    01:00 +17°C° 0 mm 3 mps 760 mmHg 81%
    02:00 +16°C° 0 mm 3 mps 760 mmHg 83%
    03:00 +16°C° 0 mm 3 mps 760 mmHg 85%
    04:00 +16°C° 0 mm 3 mps 760 mmHg 86%
    05:00 +16°C° 0 mm 3 mps 761 mmHg 86%
    06:00 +16°C° 0 mm 3 mps 761 mmHg 87%
    07:00 +17°C° 0 mm 3 mps 761 mmHg 79%
    08:00 +19°C° 0 mm 3 mps 762 mmHg 71%
    09:00 +20°C° 0 mm 3 mps 762 mmHg 62%
    10:00 +22°C° 0 mm 3 mps 762 mmHg 54%
    11:00 +25°C° 0 mm 3 mps 762 mmHg 46%
    12:00 +27°C° 0 mm 3 mps 761 mmHg 38%
    13:00 +27°C° 0 mm 3 mps 761 mmHg 38%
    14:00 +27°C° 0 mm 4 mps 760 mmHg 39%
    15:00 +27°C° 0 mm 4 mps 760 mmHg 40%
    16:00 +26°C° 0 mm 5 mps 760 mmHg 45%
    17:00 +23°C° 0 mm 5 mps 760 mmHg 50%
    18:00 +22°C° 0 mm 5 mps 760 mmHg 55%
    19:00 +21°C° 0 mm 5 mps 761 mmHg 60%
    20:00 +19°C° 0 mm 5 mps 761 mmHg 66%
    21:00 +17°C° 0 mm 5 mps 762 mmHg 72%
    22:00 +17°C° 0 mm 5 mps 762 mmHg 73%
    23:00 +18°C° 0 mm 4 mps 762 mmHg 75%

    22 February, Friday

    Time Temperature Precipitation Wind Pressure Humidity
    00:00 +18°C° 0 mm 4 mps 762 mmHg 76%
    01:00 +17°C° 0 mm 4 mps 761 mmHg 75%
    02:00 +17°C° 0 mm 4 mps 761 mmHg 73%
    03:00 +17°C° 0 mm 4 mps 761 mmHg 71%
    04:00 +17°C° 0 mm 4 mps 761 mmHg 69%
    05:00 +17°C° 0 mm 3 mps 762 mmHg 67%
    06:00 +17°C° 0 mm 3 mps 762 mmHg 64%
    07:00 +20°C° 0 mm 3 mps 762 mmHg 57%
    08:00 +22°C° 0 mm 3 mps 763 mmHg 49%
    09:00 +25°C° 0 mm 3 mps 763 mmHg 41%
    10:00 +27°C° 0 mm 3 mps 763 mmHg 36%
    11:00 +29°C° 0 mm 3 mps 762 mmHg 32%
    12:00 +31°C° 0 mm 3 mps 762 mmHg 27%
    13:00 +31°C° 0 mm 3 mps 762 mmHg 27%
    14:00 +32°C° 0 mm 4 mps 761 mmHg 27%
    15:00 +33°C° 0 mm 4 mps 761 mmHg 27%
    16:00 +30°C° 0 mm 5 mps 761 mmHg 32%
    17:00 +28°C° 0 mm 5 mps 761 mmHg 37%
    18:00 +26°C° 0 mm 6 mps 761 mmHg 42%
    19:00 +24°C° 0 mm 6 mps 762 mmHg 47%
    20:00 +23°C° 0 mm 5 mps 762 mmHg 53%
    21:00 +22°C° 0 mm 5 mps 763 mmHg 59%
    22:00 +22°C° 0 mm 5 mps 763 mmHg 57%
    23:00 +22°C° 0 mm 5 mps 763 mmHg 56%

    23 February, Saturday

    Time Temperature Precipitation Wind Pressure Humidity
    00:00 +22°C° 0 mm 5 mps 762 mmHg 54%
    01:00 +22°C° 0 mm 5 mps 762 mmHg 53%
    02:00 +21°C° 0 mm 5 mps 762 mmHg 52%
    03:00 +21°C° 0 mm 4 mps 762 mmHg 51%
    04:00 +21°C° 0 mm 4 mps 762 mmHg 52%
    05:00 +20°C° 0 mm 4 mps 763 mmHg 54%
    06:00 +20°C° 0 mm 4 mps 763 mmHg 56%
    07:00 +22°C° 0 mm 4 mps 763 mmHg 49%
    08:00 +25°C° 0 mm 3 mps 764 mmHg 43%
    09:00 +27°C° 0 mm 3 mps 764 mmHg 36%
    10:00 +29°C° 0 mm 3 mps 764 mmHg 31%
    11:00 +31°C° 0 mm 2 mps 763 mmHg 26%
    12:00 +34°C° 0 mm 2 mps 763 mmHg 21%
    13:00 +34°C° 0 mm 3 mps 762 mmHg 20%
    14:00 +35°C° 0 mm 3 mps 762 mmHg 18%
    15:00 +35°C° 0 mm 3 mps 761 mmHg 17%
    16:00 +34°C° 0 mm 4 mps 761 mmHg 20%
    17:00 +32°C° 0 mm 4 mps 761 mmHg 24%
    18:00 +30°C° 0 mm 4 mps 761 mmHg 27%
    19:00 +28°C° 0 mm 4 mps 761 mmHg 32%
    20:00 +26°C° 0 mm 4 mps 762 mmHg 38%
    21:00 +25°C° 0 mm 4 mps 762 mmHg 44%
    22:00 +25°C° 0 mm 4 mps 762 mmHg 43%
    23:00 +24°C° 0 mm 3 mps 761 mmHg 43%

    24 February, Sunday

    Time Temperature Precipitation Wind Pressure Humidity
    00:00 +24°C° 0 mm 3 mps 761 mmHg 42%
    01:00 +25°C° 0 mm 3 mps 761 mmHg 39%
    02:00 +25°C° 0 mm 3 mps 761 mmHg 36%
    03:00 +25°C° 0 mm 3 mps 761 mmHg 33%
    04:00 +25°C° 0 mm 3 mps 761 mmHg 33%
    05:00 +24°C° 0 mm 3 mps 761 mmHg 34%
    06:00 +24°C° 0 mm 3 mps 761 mmHg 34%
    07:00 +27°C° 0 mm 3 mps 762 mmHg 30%
    08:00 +29°C° 0 mm 3 mps 762 mmHg 27%
    09:00 +33°C° 0 mm 4 mps 762 mmHg 24%
    10:00 +34°C° 0 mm 3 mps 762 mmHg 22%
    11:00 +36°C° 0 mm 2 mps 761 mmHg 19%
    12:00 +37°C° 0 mm 2 mps 761 mmHg 17%
    13:00 +38°C° 0 mm 2 mps 760 mmHg 17%
    14:00 +38°C° 0 mm 2 mps 760 mmHg 16%
    15:00 +39°C° 0 mm 2 mps 759 mmHg 15%
    16:00 +37°C° 0 mm 3 mps 759 mmHg 16%
    17:00 +36°C° 0 mm 3 mps 759 mmHg 17%
    18:00 +35°C° 0 mm 3 mps 759 mmHg 19%
    19:00 +33°C° 0 mm 4 mps 760 mmHg 22%
    20:00 +32°C° 0 mm 4 mps 760 mmHg 26%
    21:00 +29°C° 0 mm 4 mps 760 mmHg 29%
    22:00 +29°C° 0 mm 4 mps 760 mmHg 29%
    23:00 +29°C° 0 mm 4 mps 760 mmHg 28%
    Show more